• In Kazakhstan
  • List of Countries
  • For 7 days
  • Water Temperature
  • Satellite Maps
  • Weather Map
  • News
  • Weather Widgets
  • user-avatar
    Login

    Hourly Weather Magda

    Today, 22 February, Friday

    Time Temperature Precipitation Wind Pressure Humidity
    00:00 +5°C° 0.3 mm 5 mps 747 mmHg 91%
    01:00 +5°C° 0 mm 3 mps 747 mmHg 92%
    02:00 +5°C° 0.5 mm 4 mps 747 mmHg 92%
    03:00 +5°C° 0.5 mm 4 mps 747 mmHg 93%
    04:00 +5°C° 0.5 mm 5 mps 747 mmHg 94%
    05:00 +3°C° 0.1 mm 5 mps 748 mmHg 89%
    06:00 +1°C° 0.1 mm 6 mps 749 mmHg 85%
    07:00 -1°C° 0 mm 6 mps 751 mmHg 78%
    08:00 -2°C° 0 mm 6 mps 752 mmHg 73%
    09:00 -3°C° 0 mm 6 mps 753 mmHg 68%
    10:00 -3°C° 0 mm 6 mps 754 mmHg 62%
    11:00 -3°C° 0 mm 6 mps 755 mmHg 56%
    12:00 -3°C° 0 mm 6 mps 756 mmHg 50%
    13:00 -2°C° 0 mm 6 mps 757 mmHg 44%
    14:00 -3°C° 0 mm 6 mps 757 mmHg 44%
    15:00 -3°C° 0 mm 6 mps 758 mmHg 43%
    16:00 -4°C° 0 mm 5 mps 758 mmHg 43%
    17:00 -4°C° 0 mm 5 mps 759 mmHg 44%
    18:00 -5°C° 0 mm 5 mps 760 mmHg 45%
    19:00 -5°C° 0 mm 5 mps 761 mmHg 46%
    20:00 -5°C° 0 mm 4 mps 761 mmHg 44%
    21:00 -5°C° 0 mm 4 mps 762 mmHg 42%
    22:00 -5°C° 0 mm 4 mps 763 mmHg 40%
    23:00 -5°C° 0 mm 4 mps 763 mmHg 38%

    Tomorrow, 23 February, Saturday

    Time Temperature Precipitation Wind Pressure Humidity
    00:00 -5°C° 0 mm 4 mps 763 mmHg 36%
    01:00 -5°C° 0 mm 3 mps 763 mmHg 35%
    02:00 -5°C° 0 mm 3 mps 763 mmHg 35%
    03:00 -5°C° 0 mm 3 mps 764 mmHg 35%
    04:00 -5°C° 0 mm 3 mps 764 mmHg 36%
    05:00 -4°C° 0 mm 2 mps 764 mmHg 37%
    06:00 -4°C° 0 mm 2 mps 764 mmHg 38%
    07:00 -4°C° 0 mm 2 mps 764 mmHg 39%
    08:00 -4°C° 0 mm 2 mps 764 mmHg 36%
    09:00 -3°C° 0 mm 2 mps 764 mmHg 34%
    10:00 -2°C° 0 mm 2 mps 765 mmHg 31%
    11:00 -2°C° 0 mm 2 mps 764 mmHg 29%
    12:00 -1°C° 0 mm 2 mps 764 mmHg 27%
    13:00 +2°C° 0 mm 1 mps 764 mmHg 25%
    14:00 +2°C° 0 mm 1 mps 764 mmHg 25%
    15:00 +2°C° 0 mm 1 mps 763 mmHg 26%
    16:00 +2°C° 0 mm 1 mps 763 mmHg 27%
    17:00 +1°C° 0 mm 1 mps 763 mmHg 30%
    18:00 0°C° 0 mm 1 mps 763 mmHg 34%
    19:00 -1°C° 0 mm 1 mps 763 mmHg 37%
    20:00 -1°C° 0 mm 1 mps 763 mmHg 38%
    21:00 -1°C° 0 mm 1 mps 763 mmHg 38%
    22:00 -1°C° 0 mm 1 mps 763 mmHg 38%
    23:00 -1°C° 0 mm 1 mps 762 mmHg 39%

    Day after tomorrow, 24 February, Sunday

    Time Temperature Precipitation Wind Pressure Humidity
    00:00 -1°C° 0 mm 1 mps 762 mmHg 39%
    01:00 -1°C° 0 mm 1 mps 762 mmHg 39%
    02:00 -1°C° 0 mm 1 mps 762 mmHg 39%
    03:00 -1°C° 0 mm 1 mps 762 mmHg 38%
    04:00 0°C° 0 mm 1 mps 761 mmHg 38%
    05:00 -1°C° 0 mm 1 mps 761 mmHg 37%
    06:00 -1°C° 0 mm 1 mps 761 mmHg 37%
    07:00 -1°C° 0 mm 1 mps 761 mmHg 37%
    08:00 0°C° 0 mm 1 mps 761 mmHg 33%
    09:00 +2°C° 0 mm 1 mps 761 mmHg 30%
    10:00 +2°C° 0 mm 2 mps 761 mmHg 26%
    11:00 +3°C° 0 mm 2 mps 761 mmHg 25%
    12:00 +4°C° 0 mm 2 mps 760 mmHg 24%
    13:00 +5°C° 0 mm 2 mps 760 mmHg 23%
    14:00 +5°C° 0 mm 2 mps 760 mmHg 29%
    15:00 +5°C° 0 mm 2 mps 760 mmHg 35%
    16:00 +5°C° 0 mm 1 mps 760 mmHg 41%
    17:00 +3°C° 0 mm 2 mps 760 mmHg 45%
    18:00 +2°C° 0 mm 2 mps 760 mmHg 49%
    19:00 +1°C° 0 mm 2 mps 760 mmHg 54%
    20:00 +1°C° 0 mm 2 mps 760 mmHg 55%
    21:00 +1°C° 0 mm 2 mps 760 mmHg 57%
    22:00 -1°C° 0 mm 2 mps 760 mmHg 59%
    23:00 -1°C° 0 mm 2 mps 760 mmHg 60%

    25 February, Monday

    Time Temperature Precipitation Wind Pressure Humidity
    00:00 -1°C° 0 mm 2 mps 760 mmHg 61%
    01:00 -1°C° 0 mm 2 mps 760 mmHg 63%
    02:00 -1°C° 0 mm 2 mps 760 mmHg 64%
    03:00 -1°C° 0 mm 2 mps 760 mmHg 65%
    04:00 -1°C° 0 mm 2 mps 760 mmHg 67%
    05:00 -1°C° 0 mm 2 mps 760 mmHg 68%
    06:00 -1°C° 0 mm 2 mps 760 mmHg 70%
    07:00 -1°C° 0 mm 2 mps 760 mmHg 72%
    08:00 0°C° 0 mm 3 mps 760 mmHg 69%
    09:00 +1°C° 0 mm 3 mps 761 mmHg 67%
    10:00 +3°C° 0 mm 3 mps 761 mmHg 65%
    11:00 +4°C° 0 mm 3 mps 760 mmHg 65%
    12:00 +5°C° 0 mm 3 mps 760 mmHg 64%
    13:00 +7°C° 0 mm 2 mps 760 mmHg 64%
    14:00 +7°C° 0 mm 2 mps 760 mmHg 66%
    15:00 +7°C° 0 mm 2 mps 760 mmHg 67%
    16:00 +7°C° 0 mm 2 mps 759 mmHg 69%
    17:00 +6°C° 0 mm 2 mps 759 mmHg 74%
    18:00 +5°C° 0 mm 2 mps 759 mmHg 80%
    19:00 +4°C° 0 mm 2 mps 760 mmHg 86%
    20:00 +3°C° 0 mm 2 mps 759 mmHg 87%
    21:00 +3°C° 0 mm 2 mps 759 mmHg 88%
    22:00 +3°C° 0 mm 2 mps 759 mmHg 90%
    23:00 +2°C° 0 mm 2 mps 758 mmHg 88%

    26 February, Tuesday

    Time Temperature Precipitation Wind Pressure Humidity
    00:00 +2°C° 0 mm 2 mps 758 mmHg 87%
    01:00 +2°C° 0 mm 2 mps 758 mmHg 86%
    02:00 +1°C° 0 mm 3 mps 757 mmHg 84%
    03:00 +1°C° 0 mm 3 mps 756 mmHg 83%
    04:00 +1°C° 0 mm 3 mps 756 mmHg 82%
    05:00 +1°C° 0 mm 3 mps 756 mmHg 82%
    06:00 +1°C° 0 mm 3 mps 755 mmHg 82%
    07:00 0°C° 0 mm 4 mps 755 mmHg 82%
    08:00 +1°C° 0 mm 4 mps 755 mmHg 76%
    09:00 +3°C° 0 mm 5 mps 755 mmHg 70%
    10:00 +5°C° 0 mm 6 mps 754 mmHg 65%
    11:00 +7°C° 0 mm 6 mps 754 mmHg 61%
    12:00 +8°C° 0 mm 6 mps 754 mmHg 57%
    13:00 +9°C° 0 mm 6 mps 753 mmHg 54%
    14:00 +8°C° 0.1 mm 5 mps 753 mmHg 60%
    15:00 +7°C° 0.1 mm 5 mps 753 mmHg 67%
    16:00 +6°C° 0.1 mm 4 mps 753 mmHg 73%
    17:00 +5°C° 0 mm 4 mps 753 mmHg 77%
    18:00 +4°C° 0 mm 3 mps 754 mmHg 80%
    19:00 +4°C° 0 mm 3 mps 754 mmHg 84%
    20:00 +3°C° 0 mm 3 mps 754 mmHg 87%
    21:00 +3°C° 0 mm 3 mps 754 mmHg 89%
    22:00 +2°C° 0 mm 3 mps 754 mmHg 92%
    23:00 +2°C° 0 mm 3 mps 754 mmHg 93%

    27 February, Wednesday

    Time Temperature Precipitation Wind Pressure Humidity
    00:00 +2°C° 0 mm 3 mps 754 mmHg 93%
    01:00 +2°C° 0 mm 3 mps 754 mmHg 93%
    02:00 +1°C° 0 mm 3 mps 754 mmHg 93%
    03:00 +1°C° 0 mm 3 mps 754 mmHg 93%
    04:00 +1°C° 0 mm 2 mps 754 mmHg 93%
    05:00 +1°C° 0 mm 2 mps 754 mmHg 91%
    06:00 -1°C° 0 mm 2 mps 754 mmHg 89%
    07:00 -1°C° 0 mm 2 mps 754 mmHg 87%
    08:00 +2°C° 0 mm 2 mps 754 mmHg 78%
    09:00 +3°C° 0 mm 2 mps 753 mmHg 68%
    10:00 +5°C° 0 mm 2 mps 753 mmHg 58%
    11:00 +6°C° 0 mm 2 mps 753 mmHg 53%
    12:00 +7°C° 0 mm 2 mps 752 mmHg 48%
    13:00 +9°C° 0 mm 2 mps 752 mmHg 42%
    14:00 +9°C° 0 mm 2 mps 752 mmHg 43%
    15:00 +9°C° 0 mm 2 mps 751 mmHg 44%
    16:00 +9°C° 0 mm 2 mps 751 mmHg 44%
    17:00 +9°C° 0 mm 1 mps 750 mmHg 49%
    18:00 +8°C° 0 mm 1 mps 750 mmHg 54%
    19:00 +6°C° 0 mm 1 mps 750 mmHg 59%
    20:00 +6°C° 0 mm 1 mps 749 mmHg 60%
    21:00 +5°C° 0 mm 2 mps 749 mmHg 61%
    22:00 +5°C° 0 mm 2 mps 749 mmHg 62%
    23:00 +5°C° 0 mm 2 mps 748 mmHg 63%
    Show more